Flag for Argentina Weather past 2 weeks in Tucumán, Tucumán, Argentina

Now
68 °F

Clear.


Feels Like: 68 °F
Forecast: 66 / 77 °F
Wind: 5 mph from Northwest

Location: Tucuman Aerodrome

Current Time: Apr 28, 2015 at 3:17:30 AM

Latest Report: Apr 28, 2015 at 3:00 AM


Visibility: 10 mi

Pressure: 30.04 "Hg

Humidity: 88%

Dew point: 64 °F

Location of TucumánLocation

Historic Weather in Tucumán — Graph

°F

Tucumán temperature yesterday

Maximum temperature yesterday: 79 °F (at 1:00 PM)
Minimum temperature yesterday: 68 °F (at 12:00 AM)
Average temperature yesterday: 73 °F

Past Weeks' High & Low Weather Summary

 TemperatureHumidityPressure
High84 °F (Apr 25, 4:00 PM)100% (Apr 16, 6:00 AM)30.24 "Hg (Apr 16, 6:00 AM)
Low57 °F (Apr 22, 5:00 AM)51% (Apr 25, 4:00 PM)29.65 "Hg (Apr 19, 6:00 AM)
Average70 °F84%30.00 "Hg
* Reported Apr 13 2:00 AM — Apr 28 2:00 AM, Tucumán, Weather by CustomWeather, © 2015

Note: Actual official high and low records may vary slightly from our data, if they occured in-between our weather recording intervals... More about our weather records

Advertising

Tucumán weather history for previous 24 hours

 ConditionsComfort  
Time TempWeatherWind HumidityBarometerVisibility
2:00 AM
Tue, Apr 28
66 °FClear.2 mph94%30.07 "Hg5 mi
1:00 AM68 °FPassing clouds.5 mph88%30.07 "HgN/A
12:00 AM68 °FPassing clouds.2 mph88%30.07 "HgN/A
11:00 PM
Mon, Apr 27
70 °FClear.12 mph88%30.07 "Hg10 mi
10:00 PM72 °FPassing clouds.17 mph78%30.07 "HgN/A
9:00 PM73 °FPartly cloudy.16 mph78%30.04 "HgN/A
8:00 PM73 °FPartly cloudy.12 mph83%30.01 "HgN/A
7:00 PM73 °FPartly cloudy.12 mph83%30.01 "HgN/A
6:00 PM77 °FPartly cloudy.9 mph74%29.98 "HgN/A
5:00 PM79 °FBroken clouds.6 mph70%29.98 "HgN/A
4:00 PM79 °FBroken clouds.6 mph70%29.98 "HgN/A
3:00 PM79 °FBroken clouds.5 mph70%29.98 "HgN/A
2:00 PM79 °FBroken clouds.No wind70%30.01 "HgN/A
1:00 PM79 °FBroken clouds.No wind70%30.01 "HgN/A
12:00 PM77 °FPassing clouds.No wind69%30.04 "HgN/A
11:00 AM75 °FScattered clouds.5 mph78%30.04 "HgN/A
10:00 AM73 °FBroken clouds.No wind83%30.04 "Hg5 mi
9:00 AM70 °FBroken clouds.No wind94%30.07 "Hg4 mi
8:00 AM70 °FBroken clouds.3 mph88%30.04 "Hg4 mi
7:00 AM70 °FBroken clouds.No wind88%30.04 "Hg5 mi
6:00 AM70 °FPartly cloudy.7 mph88%30.01 "HgN/A
5:00 AM68 °FClear.3 mph94%30.01 "Hg10 mi
4:00 AM70 °FPartly cloudy.No wind94%30.01 "HgN/A
3:00 AM72 °FFog.3 mph88%30.01 "Hg4 mi
Weather by CustomWeather, © 2015

See weather overviewHow to use our weather pages